This demonstration page uses our WeatherBlox Daily Observations layout. Learn more.

Left ArrowRight Arrow

39.08367, -84.50855

Hourly Observations for June 28, 2020

Temp ( °F °C ) Dew Point ( °F °C ) Humidity (%) Winds ( mph kmh ) Pressure ( in mb ) Visibility ( mi km ) Precip ( " mm )
12:53 am 00:53 Cloudy 73 22.8 68 20 84 84 SSW 9 15 29.86 1011 10 16.0934 0 0
1:53 am 01:53 Mostly Cloudy with Light Rain 71 21.7 68 20 90 90 SSE 5 7 29.86 1011 10 16.0934 0.01 0.254
2:53 am 02:53 Partly Cloudy 70 21.1 67 19.4 90 90 SW 9 15 29.84 1010 10 16.0934 0.001 0.001
3:53 am 03:53 Mostly Cloudy 70 21.1 67 19.4 90 90 S 7 11 29.85 1011 10 16.0934 0 0
4:53 am 04:53 Mostly Clear with Light Rain 69 20.6 67 19.4 93 93 SSW 6 9 29.83 1010 10 16.0934 0.03 0.762
5:53 am 05:53 Partly Cloudy 68 20 66 18.9 93 93 SSW 3 6 29.83 1010 10 16.0934 0.001 0.001
6:21 am 06:21 Mostly Cloudy 68 20 67 19.4 96 96 Calm 29.84 1010 10 16.0934 0 0
6:36 am 06:36 Cloudy with Light Rain 69 20.6 67 19.4 93 93 WSW 10 17 29.85 1011 2 3.21868 0.06 1.524
6:38 am 06:38 Cloudy with Heavy Rain 69 20.6 67 19.4 93 93 SW 7 11 29.85 1011 0.75 1.207005 0.14 3.556
6:44 am 06:44 Cloudy with Heavy Rain 69 20.6 68 20 96 96 SW 10 17 29.84 1010 0.25 0.402335 0.41 10.414
6:51 am 06:51 Cloudy with Heavy Rain 70 21 68 20 94 94 SSW 12 19 29.85 1011 0.25 0.402335 0.65 16.51
6:53 am 06:53 Cloudy with Heavy Rain 70 21.1 68 20 93 93 SSW 12 19 29.84 1011 0.5 0.80467 0.69 17.526
7:30 am 07:30 Cloudy with Rain 70 21.1 68 20 93 93 S 6 9 29.86 1011 1.75 2.816345 0.62 15.748
7:37 am 07:37 Cloudy with Heavy Rain 70 21.1 68 20 93 93 SSE 5 7 29.85 1011 2 3.21868 0.65 16.51
7:49 am 07:49 Cloudy with Rain 70 21 68 20 94 94 Calm 29.86 1011 3 4.82802 0.67 17.018
7:53 am 07:53 Cloudy with Light Rain 70 21.1 68 20 93 93 Calm 29.85 1011 4 6.43736 0.68 17.272
8:13 am 08:13 Cloudy with Nearby Thunderstorms 70 21.1 68 20 93 93 NNE 5 7 29.87 1011 6 9.65604 0.03 0.762
8:22 am 08:22 Cloudy with Light Rain 70 21.1 68 20 93 93 NNE 6 9 29.88 1012 9 14.48406 0.03 0.762
8:37 am 08:37 Mostly Cloudy with Light Rain 71 21.7 69 20.6 94 94 Calm 29.88 1012 10 16.0934 0.03 0.762
8:53 am 08:53 Mostly Cloudy with Light Rain 71 21.7 69 20.6 94 94 S 5 7 29.88 1012 10 16.0934 0.03 0.762
9:53 am 09:53 Cloudy with Light Rain 71 21.7 69 20.6 94 94 Calm 29.88 1012 4 6.43736 0.05 1.27
10:53 am 10:53 Mostly Cloudy with Light Rain 72 22.2 70 21.1 94 94 S 9 15 29.87 1012 7 11.26538 0.02 0.508
11:53 am 11:53 Mostly Cloudy 73 22.8 70 21.1 90 90 S 7 11 29.85 1011 10 16.0934 0.001 0.001
12:53 pm 12:53 Cloudy 75 23.9 71 21.7 88 88 SSW 7 11 29.85 1011 10 16.0934 0 0
1:53 pm 13:53 Mostly Cloudy 77 25 70 21.1 79 79 Calm 29.85 1011 10 16.0934 0 0
2:53 pm 14:53 Partly Cloudy 79 26.1 71 21.7 77 77 VRB 3 6 29.83 1010 10 16.0934 0.01 0.254
3:53 pm 15:53 Partly Cloudy 81 27.2 70 21.1 69 69 VRB 3 6 29.83 1010 10 16.0934 0 0
4:53 pm 16:53 Sunny 81 27.2 70 21.1 69 69 VRB 5 7 29.82 1010 10 16.0934 0 0
5:53 pm 17:53 Mostly Cloudy 82 27.8 69 20.6 65 65 Calm 29.81 1010 10 16.0934 0 0
6:53 pm 18:53 Mostly Sunny 80 26.7 71 21.7 74 74 SSE 5 7 29.81 1010 10 16.0934 0 0
7:36 pm 19:36 Mostly Cloudy 81 27.2 71 21.7 72 72 SSE 3 6 29.82 1010 10 16.0934 0 0
7:43 pm 19:43 Mostly Cloudy 80 26.7 72 22.2 76 76 SSE 6 9 29.82 1010 10 16.0934 0 0
7:53 pm 19:53 Cloudy 79 26.1 71 21.7 77 77 S 3 6 29.83 1010 10 16.0934 0.001 0.001
8:53 pm 20:53 Mostly Cloudy 77 25 71 21.7 82 82 SSW 5 7 29.83 1010 10 16.0934 0 0
9:53 pm 21:53 Clear 74 23.3 71 21.7 91 91 Calm 29.84 1011 10 16.0934 0 0
10:53 pm 22:53 Clear 72 22.2 70 21.1 94 94 Calm 29.87 1012 7 11.26538 0 0
11:53 pm 23:53 Clear 72 22.2 70 21.1 94 94 Calm 29.89 1012 7 11.26538 0 0

Powered by AerisWeather